Carlsbad, NM

8:33 AM MDT on October 17, 2017 (GMT -0600)
Cavern City

Weather History for KCNM - July, 2012

Change the Weather History Date:

Monday, July 16, 2012

  Actual Average Record
Temperature  
Mean Temperature 82 °F -  
Max Temperature 96 °F 95 °F 106 °F (1978)
Min Temperature 68 °F 68 °F 59 °F (2013)
Cooling Degree Days 17    
Growing Degree Days 32 (Base 50)    
Moisture  
Dew Point 52 °F    
Average Humidity 37    
Maximum Humidity 68    
Minimum Humidity 18    
Precipitation  
Precipitation 0.00 in - - ()
Sea Level Pressure  
Sea Level Pressure 29.77 in    
Wind  
Wind Speed 7 mph (SSE)    
Max Wind Speed 16 mph    
Max Gust Speed 25 mph    
Visibility 10 miles    
Events      
Averages and records for this station are not official NWS values.
T = Trace of Precipitation, MM = Missing Value Source: NWS Daily Summary

Daily Weather History Graph

Daily Weather History Graph

Search for Another Location

Airport or City:

Trip Planner

Search our weather history database for the weather conditions in past years. The results will help you decide how hot, cold, wet, or windy it might be!

Date:

Astronomy

Jul. 16, 2012 Rise Set
Actual Time 6:01 AM MDT 8:04 PM MDT
Civil Twilight 5:34 AM MDT 8:31 PM MDT
Nautical Twilight 5:00 AM MDT 9:05 PM MDT
Astronomical Twilight 4:24 AM MDT 9:41 PM MDT
Moon 3:48 AM MDT (7/16) 6:11 PM MDT (7/16)
Length of Visible Light 14h 57m
Length of Day
14h 02m
Waning Crescent, 6% of the Moon is Illuminated
Jul 16
Waning Crescent
Jul 18
New
Jul 26
First Quarter
Aug 1
Full
Aug 9
Last Quarter

Hourly Weather History & Observations

Time (MDT) Temp. Heat Index Dew Point Humidity Pressure Visibility Wind Dir Wind Speed Gust Speed Precip Events Conditions
12:53 AM 82.0 °F - 46.9 °F 29% 29.80 in 10.0 mi South 6.9 mph - N/A   Clear
1:53 AM 80.1 °F - 48.9 °F 34% 29.80 in 10.0 mi SE 9.2 mph - N/A   Clear
2:53 AM 75.9 °F - 52.0 °F 43% 29.78 in 10.0 mi SE 8.1 mph - N/A   Clear
3:53 AM 73.0 °F - 55.0 °F 53% 29.78 in 10.0 mi SSE 9.2 mph - N/A   Clear
4:53 AM 69.1 °F - 55.0 °F 61% 29.78 in 10.0 mi Calm Calm - N/A   Clear
5:53 AM 68.0 °F - 55.9 °F 65% 29.80 in 10.0 mi Calm Calm - N/A   Clear
6:53 AM 70.0 °F - 59.0 °F 68% 29.82 in 10.0 mi Calm Calm - N/A   Clear
7:53 AM 73.9 °F - 60.1 °F 62% 29.84 in 10.0 mi SSE 9.2 mph - N/A   Clear
8:53 AM 78.1 °F - 59.0 °F 52% 29.85 in 10.0 mi South 4.6 mph - N/A   Clear
9:53 AM 82.9 °F 82.6 °F 57.9 °F 42% 29.85 in 10.0 mi Calm Calm - N/A   Clear
10:53 AM 87.1 °F 86.5 °F 59.0 °F 39% 29.85 in 10.0 mi NE 5.8 mph - N/A   Clear
11:53 AM 89.1 °F 88.0 °F 57.9 °F 35% 29.82 in 10.0 mi SE 6.9 mph - N/A   Clear
12:53 PM 93.0 °F 90.6 °F 53.1 °F 26% 29.79 in 10.0 mi East 8.1 mph - N/A   Clear
1:53 PM 93.0 °F - 50.0 °F 23% 29.76 in 10.0 mi South 8.1 mph 16.1 mph N/A   Clear
2:53 PM 95.0 °F - 50.0 °F 22% 29.73 in 10.0 mi SSE 8.1 mph - N/A   Clear
3:53 PM 95.0 °F - 48.0 °F 20% 29.71 in 10.0 mi SE 9.2 mph - N/A   Clear
4:53 PM 96.1 °F - 46.9 °F 19% 29.69 in 10.0 mi SE 5.8 mph - N/A   Clear
5:53 PM 95.0 °F - 46.0 °F 19% 29.68 in 10.0 mi SSE 5.8 mph - N/A   Clear
6:53 PM 93.9 °F - 45.0 °F 18% 29.68 in 10.0 mi SSE 11.5 mph - N/A   Clear
7:53 PM 90.0 °F - 46.0 °F 22% 29.69 in 10.0 mi SE 6.9 mph - N/A   Clear
8:53 PM 84.0 °F - 50.0 °F 31% 29.73 in 10.0 mi SE 15.0 mph 25.3 mph N/A   Clear
9:53 PM 82.0 °F - 48.9 °F 31% 29.74 in 10.0 mi SSE 16.1 mph 23.0 mph N/A   Clear
10:53 PM 80.1 °F - 50.0 °F 35% 29.76 in 10.0 mi South 11.5 mph - N/A   Clear
11:53 PM 79.0 °F - 52.0 °F 39% 29.79 in 10.0 mi South 4.6 mph - N/A   Clear